Regional Weather Roundup
Issued by NWS

Home | Current Version | Previous Version | Text Only | Print | Product List | Glossary Off
Versions: 1 2 3 4 5 6 7 8 9 10 11 12 13 14 15 16 17 18 19 20 21 22 23 24 25 26 27 28 29 30 31 32 33 34 35 36 37 38 39 40 41 42 43 44 45 46 47 48 49 50

000
ASUS43 KIND 260109
RWRIN

WEATHER ROUNDUP FOR INDIANA
NATIONAL WEATHER SERVICE INDIANAPOLIS IN
900 PM EDT SAT APR 25 2015

NOTE: "FAIR" INDICATES FEW OR NO CLOUDS BELOW 12,000 FEET WITH NO
SIGNIFICANT WEATHER AND/OR OBSTRUCTIONS TO VISIBILITY.

* - STATION DOES NOT REPORT WEATHER SUCH AS PRECIPITATION OR FOG.

+ - STATION NOT QUALITY CONTROLLED BY THE NATIONAL WEATHER SERVICE.
    USE DATA WITH CAUTION...ESPECIALLY DEWPOINT AND RELATIVE
    HUMIDITY OBSERVATIONS.

INZ001>003-010>013-019-020-260200-
NORTHWEST INDIANA

CITY           SKY/WX    TMP DP  RH WIND       PRES   REMARKS
GARY /AIRPORT/ CLOUDY    43  37  81 NE10      29.81R
KNOX *+        CLOUDY    43  34  70 NE9       29.78R
LA PORTE +     CLOUDY    46  43  88 NE5       29.81R
MICHIGAN CITY+ CLOUDY    45  36  70 CALM      29.81R
MONTICELLO +   CLOUDY    45  41  88 NE16G23   29.74R
VALPARAISO     LGT RAIN  45  40  82 NE8       29.80R

$$

LMZ046-743>745-260200-
SOUTHERN LAKE MICHIGAN

STATION/POSITION TIME  TEMP    WIND        PRES    WAVE
                       AIR SEA DIR/SP/G            HT
                 (UTC) (F)     (DEG/KT/KT) (MB)    (FT)
BURNS HARBOR     0100   43     360/ 10/ 12 1009.8S
MICHIGAN CITY    0100   43     360/  7/  8   N/A
5NW MICH CITY    0100   40 45   20/ 12/ 14   N/A     1

$$

INZ004-005-014>016-021>024-260200-
NORTH CENTRAL INDIANA

CITY           SKY/WX    TMP DP  RH WIND       PRES   REMARKS
GOSHEN         CLOUDY    44  33  65 E3        29.79R
LOGANSPORT +   CLOUDY    43  41  93 NE7       29.75R
ROCHESTER +    DRIZZLE   45  43  93 NE9       29.78R
SOUTH BEND     CLOUDY    47  33  58 E3        29.81R
WARSAW +       CLOUDY    41  37  87 NE5       29.79R

$$

INZ006>009-017-018-025>027-260200-
NORTHEAST INDIANA

CITY           SKY/WX    TMP DP  RH WIND       PRES   REMARKS
ANGOLA *+      CLOUDY    43  28  56 E3        29.77R
AUBURN +       CLOUDY    43  30  61 E3        29.79R
FORT WAYNE     LGT RAIN  41  38  89 NE16      29.77R
HUNTINGTON +   CLOUDY    41  39  92 NE7       29.76R

$$

INZ028-029-035-036-043>045-051>053-260200-
WEST CENTRAL INDIANA

CITY           SKY/WX    TMP DP  RH WIND       PRES   REMARKS
CRAWFORDSVL +  CLOUDY    43  38  81 NE17G23   29.67R
GREENCASTLE +  CLOUDY    45  41  87 NE10G18   29.64R
LAFAYETTE      CLOUDY    45  40  82 NE17G25   29.71R
TERRE HAUTE    LGT RAIN  47  44  90 NE10      29.62R

$$

INZ030>032-037>040-046>048-054>057-064-065-260200-
CENTRAL INDIANA

CITY           SKY/WX    TMP DP  RH WIND       PRES   REMARKS
CP ATTERBURY + CLOUDY    46  43  87 E12       29.63S
COLUMBUS       CLOUDY    46  41  81 NE12      29.63R
FISHERS *+     CLOUDY    43  43 100 NE9G17    29.66
FRANKFORT +    CLOUDY    46  46 100 NE16G22   29.71R
GREENWOOD *+   CLOUDY    46  41  81 E14       29.64
INDIANAPOLIS   CLOUDY    46  42  86 NE16      29.62S
-EAGLE CREEK   CLOUDY    46  41  82 NE12G22   29.63R
KOKOMO *+      CLOUDY    45  39  81 E20G28    29.73R
MARION +       CLOUDY    44  39  83 NE17G23   29.73R
MT COMFORT *+  CLOUDY    45  45 100 NE13      29.67R
SHELBYVILLE    CLOUDY    48  42  80 NE16G24   29.63R
ZIONSVILLE +   CLOUDY    45  40  81 NE21G26   29.67R

$$

INZ033-034-041-042-049-050-058-059-260200-
EAST CENTRAL INDIANA

CITY           SKY/WX    TMP DP  RH WIND       PRES   REMARKS
MUNCIE         CLOUDY    45  40  82 NE16G25   29.70R

$$

INZ060-061-067>069-081>083-085>088-260200-
SOUTHWEST INDIANA

CITY           SKY/WX    TMP DP  RH WIND       PRES   REMARKS
EVANSVILLE     CLOUDY    59  57  93 E6        29.53R
HUNTINGBURG *+ CLOUDY    54  48  82 E12       29.52F
WASHINGTON +   CLOUDY    51  47  87 NE9       29.56R

$$

INZ062-063-066-070>080-084-089>092-260200-
SOUTH CENTRAL AND SOUTHEAST INDIANA

CITY           SKY/WX    TMP DP  RH WIND       PRES   REMARKS
BEDFORD +      LGT RAIN  46  45  93 NE6       29.58
BLOOMINGTON    CLOUDY    47  45  93 E7        29.59R
MADISON *+     CLOUDY    45  43  93 NE14G22   29.59F
NORTH VERNON + CLOUDY    46  46 100 NE9G16    29.62
SEYMOUR +      LGT RAIN  48  46  93 NE10      29.60R

$$




USA.gov is the U.S. government's official web portal to all federal, state and local government web resources and services.